Date,TemperatureHighF,TemperatureAvgF,TemperatureLowF,DewpointHighF,DewpointAvgF,DewpointLowF,HumidityHigh,HumidityAvg,HumidityLow,PressureMaxIn,PressureMinIn,WindSpeedMaxMPH,WindSpeedAvgMPH,GustSpeedMaxMPH,PrecipitationSumIn
2013-1-1,39,33,26,21,12,1,78,45,21,0.00,40.00,14,6,23,0.00
2013-1-2,51,39,33,8,4,1,35,24,16,0.00,40.00,12,4,24,0.00
2013-1-3,47,37,30,9,8,5,40,30,19,0.00,40.00,11,4,16,0.00
2013-1-4,49,37,28,12,8,6,43,30,19,0.00,40.00,10,3,14,0.00
2013-1-5,48,37,31,12,6,1,45,28,17,0.00,40.00,10,5,16,0.00
2013-1-6,38,33,30,30,23,0,99,72,23,0.00,40.00,11,6,22,0.00
2013-1-7,46,36,27,30,24,8,100,66,33,0.00,40.00,9,6,18,0.00
2013-1-8,62,47,35,28,25,22,63,44,24,0.00,40.00,8,4,14,0.00
2013-1-9,57,48,41,30,27,25,60,46,31,0.00,40.00,11,3,21,0.00
2013-1-10,43,30,22,33,20,14,88,68,49,0.00,40.00,25,16,46,0.00
2013-1-11,33,24,18,19,17,15,95,76,50,0.00,40.00,12,7,26,0.00
2013-1-12,36,24,16,18,13,7,91,66,34,0.00,40.00,7,3,13,0.00
2013-1-13,36,22,16,11,7,-5,77,54,27,0.00,40.00,8,3,14,0.00
2013-1-14,33,22,11,-3,-8,-11,40,27,17,0.00,40.00,10,4,15,0.00
2013-1-15,41,31,21,11,2,-3,43,29,16,0.00,40.00,11,6,18,0.00
2013-1-16,52,40,30,16,10,0,52,31,18,0.00,40.00,10,5,16,0.00
2013-1-17,57,45,37,3,-2,-7,21,14,9,0.00,40.00,10,4,16,0.00
2013-1-18,56,44,36,0,-3,-8,19,14,8,0.00,40.00,12,6,18,0.00
2013-1-19,60,46,38,-2,-7,-11,16,11,6,0.00,40.00,9,3,18,0.00
2013-1-20,61,48,37,-5,-8,-12,15,10,5,0.00,40.00,12,4,19,0.00
2013-1-21,63,49,41,0,-6,-12,17,10,5,0.00,40.00,13,4,26,0.00
2013-1-22,61,48,39,8,3,-1,25,15,9,0.00,40.00,11,4,19,0.00
2013-1-23,56,47,40,40,16,4,93,33,16,0.00,40.00,9,3,12,0.02
2013-1-24,45,42,39,45,41,35,100,96,75,0.00,40.00,9,4,13,0.33
2013-1-25,45,43,41,44,42,40,100,97,88,0.00,40.00,9,3,13,0.05
2013-1-26,48,43,38,46,41,33,100,93,80,0.00,40.00,13,6,23,0.08
2013-1-27,40,35,29,35,28,22,92,76,59,0.00,40.00,19,13,35,0.04
2013-1-28,38,30,25,26,24,22,94,78,57,0.00,40.00,10,7,17,0.02
2013-1-29,45,33,25,30,27,24,95,79,53,0.00,40.00,14,10,26,0.00
2013-1-30,59,46,33,29,26,23,80,48,27,0.00,40.00,9,4,18,0.00
2013-1-31,60,48,38,27,23,21,57,39,24,0.00,40.00,8,3,16,0.00
2013-2-1,58,46,37,28,26,23,61,46,27,0.00,40.00,11,5,16,0.00
2013-2-2,58,49,42,36,21,15,78,35,20,0.00,40.00,11,2,16,0.00
2013-2-3,62,47,39,38,32,26,84,58,27,0.00,40.00,7,3,13,0.00
2013-2-4,65,49,39,29,22,15,63,37,15,0.00,40.00,6,4,12,0.00
2013-2-5,62,47,37,31,22,17,68,40,19,0.00,40.00,14,10,30,0.00
2013-2-6,56,42,33,34,29,24,96,63,31,0.00,40.00,10,7,22,0.00
2013-2-7,58,39,28,28,18,2,89,51,11,0.00,40.00,13,8,24,0.00
2013-2-8,38,31,27,28,23,19,90,73,48,0.00,40.00,21,12,39,0.00
2013-2-9,42,31,24,26,23,20,94,73,47,0.00,40.00,9,8,19,0.00
2013-2-10,46,34,21,24,18,11,93,56,28,0.00,40.00,9,4,17,0.00
2013-2-11,47,35,29,16,5,-4,57,31,13,0.00,40.00,7,3,21,0.00
2013-2-12,53,37,27,17,13,5,62,40,16,0.00,40.00,6,4,14,0.00
2013-2-13,59,43,32,19,14,8,58,35,14,0.00,40.00,7,5,16,0.00
2013-2-14,61,46,37,19,16,8,44,32,13,0.00,40.00,9,3,21,0.00
2013-2-15,61,49,39,16,11,7,35,22,13,0.00,40.00,14,4,32,0.00
2013-2-16,60,48,37,15,5,-1,35,18,8,0.00,40.00,11,4,17,0.00
2013-2-17,60,45,32,26,18,12,64,36,19,0.00,40.00,9,7,17,0.00
2013-2-18,59,45,33,30,20,11,74,42,19,0.00,40.00,11,6,17,0.00
2013-2-19,42,34,26,32,26,16,97,76,49,0.00,40.00,19,12,33,0.00
2013-2-20,33,26,23,28,24,20,97,91,80,0.00,40.00,13,10,23,0.03
2013-2-21,46,32,21,25,19,6,94,69,20,0.00,40.00,9,6,22,0.01
2013-2-22,51,37,24,26,20,8,94,60,18,0.00,40.00,9,7,16,0.00
2013-2-23,48,36,29,31,26,23,89,68,43,0.00,40.00,22,12,43,0.00
2013-2-24,50,36,22,26,1,-7,79,27,9,0.00,40.00,8,3,21,0.00
2013-2-25,57,40,28,21,9,0,60,30,13,0.00,40.00,10,6,18,0.00
2013-2-26,54,39,29,24,12,0,76,41,12,0.00,40.00,13,6,20,0.00
2013-2-27,52,40,30,4,1,-1,30,20,11,0.00,40.00,10,4,18,0.00
2013-2-28,59,45,33,17,8,3,40,23,11,0.00,40.00,9,5,16,0.00
2013-3-1,66,52,38,21,16,12,47,26,13,0.00,40.00,12,5,22,0.00
2013-3-2,67,54,43,23,18,13,34,25,13,0.00,40.00,13,4,24,0.00
2013-3-3,57,49,40,33,28,21,74,46,32,0.00,40.00,24,15,46,0.00
2013-3-4,63,47,34,35,29,15,91,56,18,0.00,40.00,10,5,19,0.00
2013-3-5,60,49,39,31,24,11,60,40,18,0.00,40.00,14,5,31,0.00
2013-3-6,49,40,32,32,28,21,87,61,46,0.00,40.00,20,13,37,0.00
2013-3-7,51,38,31,31,30,27,98,75,39,0.00,40.00,9,6,18,0.00
2013-3-8,34,32,31,32,30,27,98,91,76,0.00,40.00,11,5,23,0.22
2013-3-9,50,36,31,38,32,30,100,87,55,0.00,40.00,9,8,18,0.01
2013-3-10,62,50,30,30,10,0,100,24,9,0.00,40.00,9,4,17,0.00
2013-3-11,66,52,38,24,11,5,51,23,9,0.00,40.00,9,5,16,0.00
2013-3-12,69,56,44,21,12,6,39,20,9,0.00,40.00,11,5,18,0.00
2013-3-13,74,60,47,18,14,12,27,18,10,0.00,40.00,10,5,18,0.00
2013-3-14,80,63,50,28,19,13,31,20,8,0.00,40.00,10,6,19,0.00
2013-3-15,75,60,46,40,31,23,62,37,16,0.00,40.00,14,9,27,0.00
2013-3-16,72,56,42,42,35,27,84,48,21,0.00,40.00,20,11,38,0.00
2013-3-17,70,54,39,33,26,17,62,37,13,0.00,40.00,16,10,31,0.00
2013-3-18,69,55,37,32,24,14,71,33,13,0.00,40.00,14,8,23,0.00
2013-3-19,69,55,39,30,25,19,58,34,15,0.00,40.00,14,7,28,0.00
2013-3-20,61,52,46,35,30,22,60,43,24,0.00,40.00,24,20,46,0.00
2013-3-21,67,52,39,37,32,26,84,52,23,0.00,40.00,14,9,33,0.00
2013-3-22,61,46,35,36,30,21,91,59,21,0.00,40.00,12,10,24,0.00
2013-3-23,60,50,32,29,10,-4,80,27,8,0.00,40.00,12,8,24,0.00
2013-3-24,64,50,35,29,12,0,54,27,8,0.00,40.00,10,6,21,0.00
2013-3-25,69,53,40,28,21,9,56,33,10,0.00,40.00,13,8,22,0.00
2013-3-26,65,51,39,34,25,11,59,38,16,0.00,40.00,19,11,33,0.00
2013-3-27,65,51,41,36,32,28,75,51,25,0.00,40.00,15,9,27,0.00
2013-3-28,66,57,46,34,28,22,51,33,25,0.00,40.00,15,9,30,0.00
2013-3-29,70,56,40,34,24,17,62,33,13,0.00,40.00,12,6,19,0.00
2013-3-30,70,58,49,36,26,-100,60,35,14,0.00,40.00,11,5,25,0.00
2013-3-31,60,50,42,40,36,29,84,60,31,0.00,40.00,16,9,27,0.00
2013-4-1,60,46,37,36,32,30,87,62,33,0.00,40.00,16,9,27,0.00
2013-4-2,69,53,35,37,33,21,90,53,17,0.00,40.00,10,7,16,0.00
2013-4-3,71,60,38,37,27,19,87,35,15,0.00,40.00,11,6,19,0.00
2013-4-4,65,55,47,39,34,26,69,45,29,0.00,40.00,18,11,33,0.00
2013-4-5,65,51,43,39,37,34,79,60,33,0.00,40.00,17,12,35,0.00
2013-4-6,67,50,38,39,35,32,83,60,29,0.00,40.00,14,9,25,0.00
2013-4-7,66,51,39,39,36,33,84,59,31,0.00,40.00,21,13,43,0.00
2013-4-8,47,39,32,37,30,28,97,73,55,0.00,40.00,23,15,41,0.11
2013-4-9,61,47,29,30,18,-1,96,41,8,0.00,40.00,10,5,31,0.01
2013-4-10,75,56,40,23,13,5,39,20,9,0.00,40.00,9,5,18,0.00
2013-4-11,71,57,42,38,26,13,67,34,11,0.00,40.00,11,7,20,0.00
2013-4-12,75,59,42,40,30,22,81,41,14,0.00,40.00,11,8,25,0.00
2013-4-13,72,60,45,40,31,25,72,37,19,0.00,40.00,20,14,38,0.00
2013-4-14,70,57,46,38,33,25,57,42,22,0.00,40.00,29,16,55,0.00
2013-4-15,58,48,39,31,26,21,58,43,29,0.00,40.00,29,24,52,0.00
2013-4-16,49,38,28,25,20,14,75,50,27,0.00,40.00,21,12,40,0.00
2013-4-17,57,44,28,19,12,-2,63,32,13,0.00,40.00,7,4,21,0.00
2013-4-18,59,48,32,19,4,-1,54,20,9,0.00,40.00,12,4,29,0.00
2013-4-19,70,57,39,24,14,4,38,20,9,0.00,40.00,12,7,22,0.00
2013-4-20,73,60,43,33,25,13,55,30,10,0.00,40.00,10,7,26,0.00
2013-4-21,81,65,45,33,25,17,57,26,11,0.00,40.00,12,8,21,0.00
2013-4-22,79,63,49,36,29,22,57,32,14,0.00,40.00,14,9,28,0.00
2013-4-23,70,60,49,35,20,8,56,26,9,0.00,40.00,12,7,22,0.00
2013-4-24,72,61,46,29,12,2,47,18,7,0.00,40.00,14,8,29,0.00
2013-4-25,73,62,44,35,21,4,56,22,12,0.00,40.00,12,7,22,0.00
2013-4-26,78,65,42,40,24,6,73,28,7,0.00,40.00,10,7,28,0.00
2013-4-27,82,68,47,37,24,11,59,24,7,0.00,40.00,15,7,27,0.00
2013-4-28,85,69,50,39,29,20,56,27,9,0.00,40.00,14,9,24,0.00
2013-4-29,84,71,52,43,34,24,63,32,11,0.00,40.00,13,8,26,0.00
2013-4-30,79,68,55,43,35,24,59,33,16,0.00,40.00,17,12,30,0.00
2013-5-1,73,64,50,41,3,-22,62,16,2,0.00,40.00,13,7,29,0.00
2013-5-2,72,62,52,-5,-9,-14,8,6,3,0.00,40.00,15,6,30,0.00
2013-5-3,78,64,49,19,-2,-13,21,8,3,0.00,40.00,10,6,19,0.00
2013-5-4,77,65,51,28,20,11,38,20,8,0.00,40.00,14,8,26,0.00
2013-5-5,59,52,44,36,26,13,69,39,18,0.00,40.00,18,10,33,0.00
2013-5-6,54,46,40,46,37,31,96,71,57,0.00,40.00,13,6,25,0.14
2013-5-7,53,45,39,41,38,36,97,77,56,0.00,40.00,13,9,25,0.01
2013-5-8,61,49,38,44,38,29,93,68,30,0.00,40.00,9,7,17,0.00
2013-5-9,62,51,40,47,43,39,96,77,47,0.00,40.00,9,6,16,0.09
2013-5-10,80,64,44,50,32,-100,94,43,12,0.00,40.00,10,6,31,0.07
2013-5-11,83,70,53,41,29,-100,60,27,11,0.00,40.00,12,6,25,0.00
2013-5-12,87,74,55,39,33,21,51,26,9,0.00,40.00,10,6,23,0.00
2013-5-13,88,75,57,44,31,18,57,24,8,0.00,40.00,13,8,25,0.00
2013-5-14,83,69,59,36,24,9,40,21,6,0.00,40.00,24,10,43,0.00
2013-5-15,80,65,52,45,34,25,69,35,16,0.00,40.00,20,12,36,0.00
2013-5-16,72,54,49,39,18,-100,63,39,19,0.00,40.00,19,14,35,0.00
2013-5-17,66,54,46,40,36,-100,75,55,36,0.00,40.00,20,13,33,0.00
2013-5-18,74,59,43,37,30,25,62,37,18,0.00,40.00,12,10,24,0.00
2013-5-19,78,62,45,34,28,18,54,31,11,0.00,40.00,9,7,21,0.00
2013-5-20,78,66,48,34,22,13,56,24,9,0.00,40.00,10,6,20,0.00
2013-5-21,78,65,53,28,21,15,35,21,10,0.00,40.00,20,12,41,0.00
2013-5-22,68,58,43,31,26,22,51,30,17,0.00,40.00,17,13,33,0.00
2013-5-23,68,55,41,28,16,11,56,25,11,0.00,40.00,19,15,33,0.00
2013-5-24,75,63,39,28,17,3,61,23,7,0.00,40.00,12,8,21,0.00
2013-5-25,75,60,45,33,26,18,60,30,12,0.00,40.00,17,11,27,0.00
2013-5-26,72,59,47,39,30,26,60,35,21,0.00,40.00,19,12,37,0.00
2013-5-27,72,59,45,39,35,29,66,43,23,0.00,40.00,18,12,37,0.00
2013-5-28,68,57,48,44,40,36,78,55,35,0.00,40.00,16,12,30,0.00
2013-5-29,71,60,46,46,42,38,84,54,30,0.00,40.00,21,12,41,0.00
2013-5-30,83,67,47,46,38,27,83,42,15,0.00,40.00,12,9,26,0.00
2013-5-31,85,73,50,44,28,18,67,24,9,0.00,40.00,12,8,21,0.00
2013-6-1,89,82,57,35,15,8,43,9,5,0.00,40.00,11,7,20,0.00
2013-6-2,89,77,60,36,26,19,37,17,8,0.00,40.00,13,8,24,0.00
2013-6-3,87,74,59,42,32,22,46,25,11,0.00,40.00,14,8,27,0.00
2013-6-4,87,74,56,45,35,21,55,29,9,0.00,40.00,12,8,26,0.00
2013-6-5,92,77,56,48,35,19,66,30,7,0.00,40.00,12,8,22,0.00
2013-6-6,94,78,59,47,34,16,57,28,6,0.00,40.00,11,8,23,0.00
2013-6-7,96,82,60,49,29,14,55,22,5,0.00,40.00,13,7,28,0.00
2013-6-8,99,87,64,44,27,16,38,16,5,0.00,40.00,13,8,29,0.00
2013-6-9,91,79,66,49,27,-12,52,22,3,0.00,40.00,15,8,27,0.00
2013-6-10,78,68,58,39,23,6,48,20,9,0.00,40.00,18,10,32,0.00
2013-6-11,90,74,56,39,32,21,52,25,9,0.00,40.00,12,8,26,0.00
2013-6-12,88,75,59,42,32,25,41,23,10,0.00,40.00,17,10,30,0.00
2013-6-13,80,70,54,39,25,15,46,22,9,0.00,40.00,17,13,32,0.00
2013-6-14,85,73,49,29,16,3,45,15,5,0.00,40.00,13,9,22,0.00
2013-6-15,86,72,50,31,22,15,45,18,7,0.00,40.00,14,9,25,0.00
2013-6-16,85,70,57,31,26,22,36,21,10,0.00,40.00,12,9,21,0.00
2013-6-17,86,73,55,42,32,27,51,24,12,0.00,40.00,14,10,26,0.00
2013-6-18,81,67,54,42,31,23,51,29,14,0.00,40.00,18,13,34,0.00
2013-6-19,75,62,49,38,32,26,58,36,17,0.00,40.00,16,10,31,0.00
2013-6-20,79,67,49,34,26,18,55,24,10,0.00,40.00,13,9,27,0.00
2013-6-22,85,75,59,32,27,23,36,18,11,0.00,40.00,11,8,21,0.00
2013-6-23,78,66,56,40,35,29,50,32,18,0.00,40.00,16,12,34,0.00
2013-6-24,68,61,53,49,41,31,70,49,41,0.00,40.00,21,15,38,0.00
2013-6-25,83,67,51,51,48,44,88,54,26,0.00,40.00,20,12,35,0.00
2013-6-26,91,72,57,54,48,37,81,49,15,0.00,40.00,12,9,22,0.00
2013-6-27,95,77,61,55,48,32,78,43,11,0.00,40.00,10,8,20,0.00
2013-6-28,99,87,64,55,43,24,69,27,7,0.00,40.00,12,8,23,0.00
2013-6-29,100,85,66,54,43,31,60,27,9,0.00,40.00,13,9,24,0.00
2013-6-30,102,90,68,49,34,23,51,17,7,0.00,40.00,12,9,26,0.00
2013-7-1,100,88,72,44,36,30,33,18,9,0.00,40.00,12,6,23,0.00
2013-7-2,99,85,70,44,40,33,39,22,11,0.00,40.00,16,8,34,0.00
2013-7-3,97,82,70,45,41,34,36,24,11,0.00,40.00,12,9,25,0.00
2013-7-4,100,85,70,53,46,35,47,29,11,0.00,40.00,14,8,23,0.00
2013-7-5,95,82,69,54,45,31,57,32,11,0.00,40.00,14,9,26,0.00
2013-7-6,94,79,66,41,34,27,36,22,9,0.00,40.00,13,8,34,0.00
2013-7-7,93,80,65,35,27,21,31,16,8,0.00,40.00,13,9,27,0.00
2013-7-8,90,79,68,25,22,17,19,13,7,0.00,40.00,16,10,30,0.00
2013-7-9,93,81,65,29,22,15,18,12,7,0.00,40.00,15,11,31,0.00
2013-7-10,90,78,71,44,31,-100,33,19,12,0.00,40.00,11,8,21,0.00
2013-7-11,83,72,62,56,48,38,75,46,27,0.00,40.00,9,6,18,0.03
2013-7-12,90,73,59,44,33,16,52,27,9,0.00,40.00,11,7,23,0.01
2013-7-13,89,78,62,35,28,21,31,17,10,0.00,40.00,14,11,27,0.00
2013-7-14,93,80,65,35,30,25,30,17,11,0.00,40.00,12,8,23,0.00
2013-7-15,93,81,63,34,30,23,25,16,12,0.00,40.00,11,8,26,0.00
2013-7-16,88,83,70,30,25,23,18,12,10,0.00,40.00,12,8,21,0.00
2013-7-17,90,78,59,35,25,9,37,17,5,0.00,40.00,11,8,22,0.00
2013-7-18,93,85,63,38,26,16,40,14,6,0.00,40.00,10,7,18,0.00
2013-7-19,97,89,64,41,29,23,41,13,7,0.00,40.00,11,8,21,0.00
2013-7-20,95,81,65,41,34,27,30,19,11,0.00,40.00,12,8,21,0.00
2013-7-21,88,78,68,53,44,38,52,30,22,0.00,40.00,12,6,23,0.00
2013-7-22,84,72,62,63,56,50,96,62,32,0.00,40.00,13,6,20,0.32
2013-7-23,85,72,60,62,56,47,95,62,27,0.00,40.00,9,5,19,0.01
2013-7-24,91,78,63,54,48,42,72,40,18,0.00,40.00,11,7,19,0.01
2013-7-25,95,80,64,49,43,32,56,30,11,0.00,40.00,12,7,23,0.00
2013-7-26,77,70,65,60,54,46,83,57,41,0.00,40.00,9,7,16,0.10
2013-7-27,84,73,63,61,55,48,90,57,34,0.00,40.00,8,4,19,0.04
2013-7-28,86,75,62,52,47,40,61,41,22,0.00,40.00,10,6,27,0.02
2013-7-29,89,74,60,46,39,25,53,31,10,0.00,40.00,13,7,26,0.00
2013-7-30,88,77,60,42,38,31,50,26,13,0.00,40.00,13,7,25,0.00
2013-7-31,89,78,60,43,30,7,52,21,5,0.00,40.00,15,8,28,0.00
2013-8-1,84,74,57,37,32,26,43,23,12,0.00,40.00,16,10,26,0.00
2013-8-2,85,74,53,35,28,22,43,20,10,0.00,40.00,11,8,19,0.00
2013-8-3,88,76,55,29,21,11,37,15,6,0.00,40.00,10,6,21,0.00
2013-8-4,88,80,63,27,19,14,24,11,7,0.00,40.00,10,8,21,0.00
2013-8-5,91,80,63,30,21,16,29,12,8,0.00,40.00,11,8,23,0.00
2013-8-6,90,78,58,40,27,20,44,17,8,0.00,40.00,15,9,24,0.00
2013-8-7,81,69,57,40,33,21,52,29,12,0.00,40.00,18,11,33,0.00
2013-8-8,83,68,52,41,31,16,60,30,8,0.00,40.00,13,9,23,0.00
2013-8-9,82,69,50,42,32,20,64,30,11,0.00,40.00,12,7,20,0.00
2013-8-10,84,73,56,40,36,34,53,28,17,0.00,40.00,11,7,24,0.00
2013-8-11,85,75,56,41,30,17,58,23,8,0.00,40.00,12,8,22,0.00
2013-8-12,89,78,57,43,30,19,59,21,9,0.00,40.00,11,8,21,0.00
2013-8-13,90,79,58,41,24,-100,53,18,7,0.00,40.00,11,8,20,0.00
2013-8-14,90,83,63,37,17,-100,38,11,6,0.00,40.00,11,8,21,0.00
2013-8-15,92,74,62,31,16,-100,28,15,9,0.00,40.00,14,9,32,0.00
2013-8-16,93,81,64,42,36,29,35,21,13,0.00,40.00,12,8,24,0.00
2013-8-17,95,78,62,43,36,-100,49,25,11,0.00,40.00,10,8,24,0.00
2013-8-18,93,80,62,46,37,24,42,24,12,0.00,40.00,12,8,30,0.00
2013-8-19,87,72,65,59,39,-100,63,38,25,0.00,40.00,13,8,32,0.00
2013-8-20,90,76,64,49,38,-100,55,31,10,0.00,40.00,12,7,26,0.00
2013-8-21,88,78,70,40,36,31,32,23,13,0.00,40.00,13,5,30,0.00
2013-8-22,90,78,65,40,34,26,38,22,11,0.00,40.00,12,5,31,0.00
2013-8-23,88,78,61,37,27,15,40,18,7,0.00,40.00,14,7,35,0.00
2013-8-24,87,72,56,40,28,-100,54,24,6,0.00,40.00,12,6,24,0.00
2013-8-25,85,73,57,44,29,20,43,22,11,0.00,40.00,13,7,23,0.00
2013-8-26,81,69,57,56,46,35,71,45,29,0.00,40.00,15,5,23,0.00
2013-8-27,78,66,61,57,54,51,77,66,42,0.00,40.00,11,3,19,0.00
2013-8-28,87,80,67,52,47,44,46,32,25,0.00,40.00,12,8,31,0.00
2013-8-29,89,78,64,46,44,41,49,31,19,0.00,40.00,7,4,16,0.00
2013-8-30,88,76,62,62,50,46,85,43,27,0.00,40.00,10,6,22,0.21
2013-8-31,85,73,61,61,49,-100,81,48,27,0.00,40.00,10,7,20,0.21
2013-9-1,88,73,61,54,46,42,64,39,20,0.00,40.00,11,7,21,0.00
2013-9-2,87,74,63,55,48,38,68,44,18,0.00,40.00,13,7,25,0.00
2013-9-3,88,75,62,53,48,42,65,43,21,0.00,40.00,14,7,27,0.00
2013-9-4,91,76,62,50,45,38,62,37,17,0.00,40.00,14,6,23,0.00
2013-9-5,88,76,61,48,43,39,59,34,18,0.00,40.00,12,6,24,0.00
2013-9-6,91,81,63,47,36,32,55,23,13,0.00,40.00,10,7,24,0.00
2013-9-7,89,75,60,41,29,-100,43,22,8,0.00,40.00,13,7,24,0.00
2013-9-8,86,73,62,53,36,24,64,28,13,0.00,40.00,10,6,30,0.00
2013-9-9,87,73,62,48,42,35,56,35,16,0.00,40.00,11,5,25,0.00
2013-9-10,83,71,61,45,39,36,45,33,20,0.00,40.00,11,7,20,0.00
2013-9-11,84,68,58,44,39,36,55,37,19,0.00,40.00,9,6,17,0.00
2013-9-12,83,71,55,46,40,34,56,35,17,0.00,40.00,11,8,19,0.00
2013-9-13,87,72,56,47,43,37,66,40,18,0.00,40.00,9,6,19,0.00
2013-9-14,89,73,58,47,39,-100,62,35,13,0.00,40.00,10,6,19,0.00
2013-9-15,88,83,63,48,30,26,58,16,11,0.00,40.00,13,9,33,0.00
2013-9-16,87,77,61,41,30,25,48,20,11,0.00,40.00,15,7,29,0.00
2013-9-17,82,68,55,43,33,15,60,32,8,0.00,40.00,17,10,29,0.00
2013-9-18,61,55,51,45,41,36,72,61,41,0.00,40.00,11,9,19,0.00
2013-9-19,82,73,56,37,14,10,49,12,8,0.00,40.00,12,5,22,0.00
2013-9-20,84,70,59,36,23,17,40,18,9,0.00,40.00,13,6,30,0.00
2013-9-21,71,59,48,41,35,-100,70,44,24,0.00,40.00,20,13,38,0.00
2013-9-22,66,53,41,38,33,27,75,50,26,0.00,40.00,21,11,41,0.00
2013-9-23,78,67,44,39,26,20,78,26,13,0.00,40.00,10,6,19,0.00
2013-9-24,81,67,52,34,24,15,51,23,9,0.00,40.00,16,11,30,0.00
2013-9-25,61,56,42,43,35,27,69,47,29,0.00,40.00,23,20,44,0.00
2013-9-26,60,48,38,33,27,23,68,47,25,0.00,40.00,15,8,26,0.00
2013-9-27,66,51,37,30,21,12,74,38,13,0.00,40.00,8,4,17,0.00
2013-9-28,72,58,46,18,13,-100,31,19,10,0.00,40.00,10,5,17,0.00
2013-9-29,80,64,47,27,20,15,34,20,10,0.00,40.00,18,11,32,0.00
2013-9-30,77,64,52,34,28,25,40,27,15,0.00,40.00,13,9,26,0.00
2013-10-1,74,63,54,44,42,39,65,47,29,0.00,40.00,13,11,24,0.00
2013-10-2,74,58,47,46,41,34,86,57,25,0.00,40.00,16,11,27,0.00
2013-10-3,67,59,46,29,25,23,50,29,20,0.00,40.00,14,10,25,0.00
2013-10-4,63,54,44,26,4,-2,45,14,8,0.00,40.00,12,7,40,0.00
2013-10-5,68,56,45,9,6,3,19,14,9,0.00,40.00,14,6,23,0.00
2013-10-6,74,61,50,6,2,-2,15,10,6,0.00,40.00,11,5,19,0.00
2013-10-7,75,63,51,9,3,-2,17,9,6,0.00,40.00,12,6,20,0.00
2013-10-8,72,58,47,19,15,9,32,19,11,0.00,40.00,14,9,26,0.00
2013-10-9,53,46,35,35,29,18,84,53,26,0.00,40.00,16,10,27,0.01
2013-10-10,60,46,33,33,31,27,92,59,32,0.00,40.00,10,7,18,0.01
2013-10-11,67,55,39,34,28,24,78,40,20,0.00,40.00,12,6,23,0.00
2013-10-12,69,53,39,32,20,-100,69,35,10,0.00,40.00,11,8,21,0.00
2013-10-13,61,51,42,36,30,18,69,47,29,0.00,40.00,14,9,26,0.00
2013-10-14,65,52,41,32,23,18,65,36,18,0.00,40.00,10,4,17,0.00
2013-10-15,67,54,42,22,18,14,40,26,13,0.00,40.00,8,4,23,0.00
2013-10-16,65,54,40,16,12,7,33,20,11,0.00,40.00,11,5,17,0.00
2013-10-17,70,57,43,26,15,11,40,22,10,0.00,40.00,8,5,14,0.00
2013-10-18,72,61,47,26,11,6,44,15,9,0.00,40.00,10,5,18,0.00
2013-10-19,74,60,49,14,8,-100,21,14,8,0.00,40.00,9,5,16,0.00
2013-10-20,76,62,47,13,9,4,24,13,7,0.00,40.00,10,6,15,0.00
2013-10-21,75,66,50,19,10,7,29,12,8,0.00,40.00,12,6,26,0.00
2013-10-22,73,61,51,15,13,11,21,16,10,0.00,40.00,11,4,19,0.00
2013-10-23,74,60,51,16,14,11,23,17,10,0.00,40.00,9,4,19,0.00
2013-10-24,76,62,48,24,16,11,32,18,9,0.00,40.00,8,6,18,0.00
2013-10-25,76,61,46,26,18,11,42,22,9,0.00,40.00,9,6,16,0.00
2013-10-26,73,61,50,22,15,-100,28,18,9,0.00,40.00,10,6,17,0.00
2013-10-27,72,59,49,34,20,12,53,24,10,0.00,40.00,19,9,38,0.00
2013-10-28,49,39,33,35,31,26,97,76,47,0.00,40.00,29,17,50,0.17
2013-10-29,48,38,32,36,33,31,98,82,53,0.00,40.00,13,10,24,0.11
2013-10-30,57,42,31,35,30,27,97,69,33,0.00,40.00,7,5,12,0.00
2013-10-31,63,49,36,31,19,11,74,36,14,0.00,40.00,10,5,17,0.00
2013-11-1,65,54,42,22,19,15,39,27,15,0.00,40.00,10,4,18,0.00
2013-11-2,68,54,45,23,17,-100,35,25,12,0.00,40.00,16,7,24,0.00
2013-11-3,64,50,40,33,28,20,75,45,28,0.00,40.00,16,9,27,0.00
2013-11-4,58,44,35,35,29,16,90,60,24,0.00,40.00,9,6,15,0.00
2013-11-5,58,43,33,25,8,-1,67,29,9,0.00,40.00,11,4,20,0.00
2013-11-6,62,50,37,10,5,1,23,16,11,0.00,40.00,12,5,20,0.00
2013-11-7,65,54,43,20,16,12,34,24,14,0.00,40.00,10,4,16,0.00
2013-11-8,67,53,42,20,15,10,37,24,11,0.00,40.00,7,5,13,0.00
2013-11-9,66,54,44,18,9,-100,30,18,9,0.00,40.00,10,6,16,0.00
2013-11-10,68,56,46,11,8,6,20,15,10,0.00,40.00,10,4,17,0.00
2013-11-11,72,58,46,15,8,-1,22,15,6,0.00,40.00,11,3,19,0.00
2013-11-12,70,60,51,12,9,4,19,13,10,0.00,40.00,6,2,14,0.00
2013-11-13,72,58,49,26,18,11,36,22,11,0.00,40.00,8,5,15,0.00
2013-11-14,71,57,47,26,21,18,40,25,13,0.00,40.00,14,7,23,0.00
2013-11-15,59,49,36,34,31,26,93,53,35,0.00,40.00,20,10,37,0.00
2013-11-16,56,43,34,37,29,-100,98,65,35,0.00,40.00,16,10,29,0.00
2013-11-17,55,44,34,32,29,25,77,56,38,0.00,40.00,12,6,18,0.00
2013-11-18,57,47,37,36,33,29,76,60,39,0.00,40.00,11,4,23,0.00
2013-11-19,55,43,35,36,34,32,87,69,44,0.00,40.00,12,8,21,0.00
2013-11-20,59,46,38,40,37,33,89,72,46,0.00,40.00,11,8,21,0.00
2013-11-21,50,43,36,41,36,28,95,79,52,0.00,40.00,10,5,21,0.11
2013-11-22,38,34,32,34,31,28,97,89,70,0.00,40.00,6,2,20,0.35
2013-11-23,42,36,33,34,30,-100,98,82,63,0.00,40.00,8,3,17,0.12
2013-11-24,50,39,32,34,30,24,95,72,48,0.00,40.00,6,3,12,0.01
2013-11-25,57,43,32,32,28,15,89,58,29,0.00,40.00,8,5,12,0.00
2013-11-26,58,47,42,26,22,16,50,37,26,0.00,40.00,11,4,16,0.00
2013-11-27,54,44,36,31,27,23,77,53,36,0.00,40.00,14,6,22,0.00
2013-11-28,48,43,37,30,26,24,74,51,40,0.00,40.00,12,6,24,0.00
2013-11-29,53,43,36,28,26,23,64,52,31,0.00,40.00,12,3,19,0.00
2013-11-30,58,45,39,25,22,-100,54,42,26,0.00,40.00,9,3,14,0.00
2013-12-1,60,48,36,24,18,15,53,33,18,0.00,40.00,8,4,13,0.00
2013-12-2,65,53,40,16,13,9,32,21,14,0.00,40.00,21,9,38,0.00
2013-12-3,51,43,30,38,29,16,94,61,25,0.00,40.00,26,23,49,0.00
2013-12-4,38,28,19,20,11,3,79,53,25,0.00,40.00,15,6,29,0.00
2013-12-5,35,24,17,14,8,3,72,52,27,0.00,40.00,6,3,14,0.00
2013-12-6,39,27,16,10,0,-16,72,37,13,0.00,40.00,12,6,23,0.00
2013-12-7,32,26,19,31,15,-100,98,66,20,0.00,40.00,29,17,51,0.04
2013-12-8,34,22,14,14,10,6,75,61,38,0.00,40.00,8,3,13,0.01
2013-12-9,36,26,17,7,0,-7,62,34,20,0.00,40.00,13,7,23,0.00
2013-12-10,45,36,22,9,2,-5,35,24,14,0.00,40.00,9,3,14,0.00
2013-12-11,54,40,32,12,6,1,36,25,13,0.00,40.00,7,2,16,0.00
2013-12-12,52,41,33,12,9,4,33,26,17,0.00,40.00,10,4,16,0.00
2013-12-13,55,41,32,15,9,5,41,28,17,0.00,40.00,11,6,18,0.00
2013-12-14,57,43,36,15,9,-100,41,27,12,0.00,40.00,11,4,19,0.00
2013-12-15,65,50,42,13,8,4,23,18,11,0.00,40.00,8,3,11,0.00
2013-12-16,69,55,47,16,12,8,23,18,10,0.00,40.00,9,2,15,0.00
2013-12-17,67,54,45,13,11,9,23,18,11,0.00,40.00,8,2,11,0.00
2013-12-18,59,52,45,19,15,10,34,23,16,0.00,40.00,12,5,23,0.00
2013-12-19,45,37,31,33,26,14,98,68,29,0.00,40.00,16,7,35,0.01
2013-12-20,47,34,29,32,26,19,99,75,44,0.00,40.00,10,6,15,0.02
2013-12-21,52,38,29,26,22,-100,83,56,30,0.00,40.00,10,6,14,0.02
2013-12-22,54,42,34,25,23,21,61,47,28,0.00,40.00,10,3,15,0.00
2013-12-23,56,45,37,27,25,22,60,47,30,0.00,40.00,9,2,14,0.00
2013-12-24,65,49,40,26,20,13,52,35,14,0.00,40.00,9,4,17,0.00
2013-12-25,60,48,41,18,3,-16,36,17,7,0.00,40.00,10,3,20,0.00
2013-12-26,66,52,41,-10,-14,-23,8,6,3,0.00,40.00,10,2,27,0.00
2013-12-27,66,52,44,-2,-9,-20,13,8,4,0.00,40.00,8,4,12,0.00
2013-12-28,64,49,40,2,-3,-100,20,12,7,0.00,40.00,8,4,18,0.00
2013-12-29,56,45,37,2,-4,-11,21,12,7,0.00,40.00,11,4,17,0.00
2013-12-30,61,47,38,4,-3,-9,19,13,7,0.00,40.00,7,4,13,0.00
2013-12-31,60,47,39,8,3,-1,22,17,10,0.00,40.00,10,5,18,0.00
2014-1-1,63,50,42,16,10,7,32,21,13,0.00,40.00,11,5,18,0.00
2014-1-2,60,48,40,21,18,15,42,31,19,0.00,40.00,9,3,14,0.00